Regional Weather Roundup
Issued by NWS

Home | Current Version | Previous Version | Text Only | Print | Product List | Glossary Off
Versions: 1 2 3 4 5 6 7 8 9 10 11 12 13 14 15 16 17 18 19 20 21 22 23 24 25 26 27 28 29 30 31 32 33 34 35 36 37 38 39 40 41 42 43 44 45 46 47 48 49 50

000
ASUS45 KBOU 021307
RWRCO

WEATHER ROUNDUP FOR COLORADO
NATIONAL WEATHER SERVICE DENVER/BOULDER CO
700 AM MDT TUE JUN 02 2015

NOTE: "FAIR" INDICATES FEW OR NO CLOUDS BELOW 12000 FEET WITH NO
SIGNIFICANT WEATHER AND/OR OBSTRUCTIONS TO VISIBILITY.

COZ001>005-013-030-031-021400-
...NORTHWEST COLORADO...

CITY           SKY/WX    TMP DP  RH WIND       PRES   REMARKS
CRAIG          MOSUNNY   47  43  86 CALM      30.08R
HAYDEN         MOSUNNY   48  39  71 E10       30.09S
MEEKER         MOSUNNY   48  38  68 CALM      30.10R
MOUNT WERNER   NOT AVBL
STEAMBOAT SPGS MOSUNNY   46  39  76 CALM      30.11S
WALDEN         SUNNY     41  36  81 SE6       30.18R
$$

COZ006>008-011-021400-
...WEST CENTRAL VALLEYS...

CITY           SKY/WX    TMP DP  RH WIND       PRES   REMARKS
GRAND JUNCTION MOSUNNY   64  31  28 SE9       30.01R
MONTROSE       SUNNY     60  30  32 E8        30.11R
EAGLE          MOSUNNY   57  52  82 CALM      30.17R
RIFLE          MOSUNNY   51  42  71 CALM      30.07R
DELTA          SUNNY     60  35  39 CALM      30.07R
NUCLA          SUNNY     57  28  33 E8        30.15R
$$

COZ017>023-064>068-021400-
...SOUTHWEST COLORADO...

CITY           SKY/WX    TMP DP  RH WIND       PRES   REMARKS
DURANGO        MOSUNNY   47  38  71 N5        30.21R
CORTEZ         SUNNY     50  34  54 E6        30.15R
PAGOSA SPRINGS MOSUNNY   49  39  67 CALM      30.27S
TELLURIDE      MOSUNNY   49  25  38 SE5       30.33S
WOLF CREEK PAS NOT AVBL
$$

COZ009-010-012-014-032>034-037-058>063-021400-
...CENTRAL COLORADO...

CITY           SKY/WX    TMP DP  RH WIND       PRES   REMARKS
ASPEN          MOSUNNY   52  32  46 S9        30.19R
BUENA VISTA    MOSUNNY   46  36  68 NW5       30.25R
COPPER MTN     NOT AVBL
BERTHOUD PASS  FAIR      37  32  81 W20G29    30.48R
COTTONWOOD PAS NOT AVBL
GUNNISON       SUNNY     39  34  81 CALM      30.29R
KREMMLING      SUNNY     43  37  81 CALM      30.20R
LEADVILLE      MOSUNNY   39  31  72 CALM      30.33R
MONARCH PASS   SUNNY     41  28  60 SW18G25   30.56R
SALIDA         MOSUNNY   51  38  62 N9        30.29R
SUNLIGHT       MOSUNNY   46  25  42 CALM      30.38R
WILKERSON PASS MOSUNNY   41  32  70 SW8       30.43S
$$

COZ069>075-021400-
...SAN LUIS VALLEY/SANGRE DE CRISTO MOUNTAINS...

CITY           SKY/WX    TMP DP  RH WIND       PRES   REMARKS
ALAMOSA        SUNNY     47  41  80 E3        30.24R
LA VETA PASS   MOSUNNY  N/A N/A N/A MISG      30.37R
SAGUACHE       SUNNY     43  37  81 NW8G17    30.27R
$$

COZ035-036-038>040-021400-
...NORTHERN COLORADO FRONT RANGE...

CITY           SKY/WX    TMP DP  RH WIND       PRES   REMARKS
DENVER INTL AP PTSUNNY   56  51  84 W8        30.01R
DMNS CITY PARK   N/A     57  50  77 SW2       30.01S
AURORA         PTSUNNY   56  51  82 SW3       30.03R
FRONT RANGE AP PTSUNNY   57  54  88 W6        30.02R
ERIE MUNI ARPT NOT AVBL
BOULDER MUN AP MOSUNNY   54  48  82 CALM      30.00S
CENTENNIAL     MOSUNNY   56  49  77 N3        30.04R
BROOMFIELD     MOSUNNY   55  50  82 W3        30.03R
FORT COLLINS   PTSUNNY   52  48  87 NW6       30.01R
LONGMONT       PTSUNNY   54  49  83 CALM      30.02R
$$

COZ041-046-047-076>085-087-088-021400-
...PIKES PEAK/PALMER DIVIDE AND SOUTHERN FOOTHILLS...

CITY           SKY/WX    TMP DP  RH WIND       PRES   REMARKS
COLO. SPRINGS  PTSUNNY   64  45  49 VRB3      30.07R
A. F. ACADEMY  MOSUNNY   58  41  52 NW3       30.08S
ELLICOTT       PTSUNNY  N/A N/A N/A CALM      30.05R
FALCON         PTSUNNY   63  42  46 W7        30.12R
FORT CARSON    SUNNY     58  47  66 W3        30.04R
LIMON          SUNNY     55  50  83 S5        30.02R
MONUMENT HILL  MOSUNNY   61  39  44 E9        30.11R
TRINIDAD       SUNNY     65  44  46 W16       30.06R
$$

COZ042>045-048>051-090-091-021400-
...NORTHEAST COLORADO...

CITY           SKY/WX    TMP DP  RH WIND       PRES   REMARKS
GREELEY ARPT   PTSUNNY   55  55 100 NW6       29.97S
AKRON          SUNNY     58  55  90 S17       29.96F
BURLINGTON     CLOUDY    60  57  89 SE10      29.97S
WRAY           MOSUNNY   62  55  75 SE13G20   29.93F
STERLING       SUNNY     61  54  77 S8        29.93F
HOLYOKE        NOT AVBL
FORT MORGAN    MOSUNNY   60  57  89 SE6       29.96S
$$

COZ086-089-092>099-021400-
...SOUTHEAST COLORADO...

CITY           SKY/WX    TMP DP  RH WIND       PRES   REMARKS
PUEBLO         MOSUNNY   56  52  86 CALM      29.99R
LA JUNTA       SUNNY     60  55  83 MISG      29.98R
LAMAR          MOSUNNY   61  57  87 N3        29.94R
SPRINGFIELD      N/A     60  52  74 SW9       29.96S
$$


USA.gov is the U.S. government's official web portal to all federal, state and local government web resources and services.